This demonstration page uses our WeatherBlox Daily Observations layout. Learn more.

Left ArrowRight Arrow

41.55636, -103.73856

Hourly Observations for May 30, 2020

Temp ( °F °C ) Dew Point ( °F °C ) Humidity (%) Winds ( mph kmh ) Pressure ( in mb ) Visibility ( mi km ) Precip ( " mm )
12:58 am 00:58 Mostly Cloudy 75 24.1 51 10.7 43 43 SSE 15 24 30.00 1016 10 16 N/A
1:58 am 01:58 Mostly Clear 76 24.5 51 10.6 42 42 SE 18 30 29.96 1015 10 16 N/A
2:58 am 02:58 Partly Cloudy 74 23.2 51 10.7 45 45 SSE 22 35 29.99 1016 10 16 N/A
3:58 am 03:58 Windy with Rain Showers Likely 67 19.6 53 11.6 60 60 SSE 28 44 29.99 1016 10 16 0.01 0.25
4:58 am 04:58 Mostly Cloudy 67 19.6 51 10.8 57 57 SSE 30 48 29.98 1015 10 16 N/A
5:58 am 05:58 Mostly Cloudy 66 19.1 51 10.6 58 58 ESE 26 43 30.04 1017 10 16 N/A
6:58 am 06:58 Mostly Cloudy 62 16.8 54 12.4 75 75 S 7 11 30.02 1017 10 16 0.02 0.51
7:58 am 07:58 Mostly Cloudy 60 15.8 54 12.2 79 79 SSE 12 19 30.00 1016 10 16 N/A
8:58 am 08:58 Mostly Cloudy 62 16.5 53 11.4 72 72 E 7 11 29.96 1015 10 16 N/A
9:58 am 09:58 Mostly Cloudy 60 15.8 52 11.2 74 74 S 6 9 29.98 1015 10 16 N/A
10:58 am 10:58 Mostly Clear 55 12.5 51 10.8 89 89 ESE 8 13 30.03 1017 10 16 N/A
11:58 am 11:58 Sunny 53 11.7 51 10.4 92 92 NE 7 11 30.08 1019 10 16 N/A
12:58 pm 12:58 Mostly Cloudy 55 13 53 11.7 92 92 ENE 12 19 30.10 1019 10 16 N/A
1:58 pm 13:58 Cloudy 57 13.7 54 12 90 90 ENE 13 20 30.11 1020 10 16 N/A
2:58 pm 14:58 Mostly Cloudy 56 13.2 52 11.1 87 87 ENE 13 20 30.15 1021 10 16 N/A
3:58 pm 15:58 Mostly Cloudy 59 15.2 54 12.2 82 82 ESE 3 6 30.14 1021 10 16 N/A
4:58 pm 16:58 Mostly Cloudy 62 16.9 55 12.6 76 76 NNW 3 6 30.12 1020 10 16 N/A
5:58 pm 17:58 Mostly Cloudy 66 19.1 55 12.7 67 67 N N/A 30.11 1020 10 16 N/A
6:58 pm 18:58 Sunny 71 21.6 55 12.9 58 58 E 9 15 30.09 1019 10 16 N/A
7:58 pm 19:58 Sunny 74 23.5 56 13.1 52 52 ESE 7 11 30.06 1018 10 16 N/A
8:58 pm 20:58 Sunny 76 24.6 55 12.6 47 47 E 12 19 30.04 1017 10 16 N/A
9:58 pm 21:58 Sunny 77 25 55 12.5 46 46 ESE 12 19 30.02 1017 10 16 N/A
10:58 pm 22:58 Sunny 76 24.6 52 11.2 43 43 ESE 13 20 30.01 1016 10 16 N/A
11:58 pm 23:58 Sunny 74 23.6 53 11.4 46 46 SE 14 22 30.03 1017 10 16 N/A

Powered by AerisWeather